| time (UTC) | temp C | wind direction | speed KPH | gust KPH | rain 1hr cm | rain 24hr cm | rain mn cm | humidity % | barometer mb |
| 20260507001646 | 26 | 292 | 3.2 | 0.0 | 0.00 | 0.00 | 0.00 | 45 | 1014.3 |
| 20260507001433 | 26 | 292 | 3.2 | 0.0 | 0.00 | 0.00 | 0.00 | 45 | 1014.3 |
| 20260507001349 | 26 | 292 | 3.2 | 0.0 | 0.00 | 0.00 | 0.00 | 44 | 1014.3 |
| 20260507001323 | 25 | 358 | 3.2 | 8.0 | 0.00 | 0.00 | 0.00 | 49 | 1015.2 |
| 20260507001247 | 26 | 292 | 3.2 | 0.0 | 0.00 | 0.00 | 0.00 | 44 | 1014.3 |
| 20260507001223 | 26 | 292 | 3.2 | 0.0 | 0.00 | 0.00 | 0.00 | 44 | 1014.3 |
| 20260507001153 | 26 | 292 | 3.2 | 4.8 | 0.00 | 0.00 | 0.00 | 44 | 1014.3 |
| 20260507001057 | 26 | 261 | 1.6 | 0.0 | 0.00 | 0.00 | 0.00 | 44 | 1014.3 |
| 20260507001012 | 26 | 261 | 1.6 | 0.0 | 0.00 | 0.00 | 0.00 | 44 | 1014.3 |
| 20260507000819 | 25 | 316 | 0.0 | 6.4 | 0.00 | 0.00 | 0.00 | 48 | 1015.4 |
| 20260507000804 | 26 | 261 | 1.6 | 0.0 | 0.00 | 0.00 | 0.00 | 45 | 1014.3 |
| 20260507000740 | 26 | 261 | 1.6 | 0.0 | 0.00 | 0.00 | 0.00 | 44 | 1014.3 |
| 20260507000717 | 26 | 261 | 1.6 | 0.0 | 0.00 | 0.00 | 0.00 | 45 | 1014.3 |
| 20260507000653 | 26 | 261 | 1.6 | 0.0 | 0.00 | 0.00 | 0.00 | 44 | 1014.3 |
| 20260507000442 | 26 | 261 | 1.6 | 0.0 | 0.00 | 0.00 | 0.00 | 45 | 1014.3 |
| 20260507000409 | 26 | 261 | 1.6 | 0.0 | 0.00 | 0.00 | 0.00 | 44 | 1014.3 |
| 20260507000339 | 26 | 261 | 1.6 | 0.0 | 0.00 | 0.00 | 0.00 | 45 | 1014.3 |
| 20260507000315 | 25 | 313 | 3.2 | 6.4 | 0.00 | 0.00 | 0.00 | 46 | 1015.1 |
| 20260507000302 | 26 | 261 | 1.6 | 0.0 | 0.00 | 0.00 | 0.00 | 45 | 1014.3 |
| 20260507000234 | 26 | 261 | 1.6 | 0.0 | 0.00 | 0.00 | 0.00 | 45 | 1014.3 |
| 20260507000149 | 26 | 261 | 1.6 | 0.0 | 0.00 | 0.00 | 0.00 | 44 | 1014.3 |
| 20260507000126 | 26 | 261 | 1.6 | 0.0 | 0.00 | 0.00 | 0.00 | 44 | 1014.3 |
| 20260507000055 | 26 | 261 | 1.6 | 4.8 | 0.00 | 0.00 | 0.00 | 45 | 1014.3 |
| 20260506235832 | 26 | 271 | 4.8 | 0.0 | 0.00 | 0.00 | 0.00 | 45 | 1014.3 |
| 20260506235812 | 25 | 249 | 1.6 | 11.3 | 0.00 | 0.00 | 0.00 | 47 | 1015.1 |
| 20260506235802 | 26 | 271 | 4.8 | 0.0 | 0.00 | 0.00 | 0.00 | 46 | 1014.3 |
| 20260506235738 | 26 | 271 | 4.8 | 0.0 | 0.00 | 0.00 | 0.00 | 46 | 1014.3 |
| 20260506235531 | 26 | 271 | 4.8 | 0.0 | 0.00 | 0.00 | 0.00 | 45 | 1014.3 |
| 20260506235507 | 26 | 271 | 4.8 | 0.0 | 0.00 | 0.00 | 0.00 | 45 | 1014.3 |
| 20260506235437 | 25 | 271 | 4.8 | 0.0 | 0.00 | 0.00 | 0.00 | 46 | 1014.3 |
| 20260506235347 | 25 | 271 | 4.8 | 0.0 | 0.00 | 0.00 | 0.00 | 46 | 1014.3 |
| 20260506235311 | 25 | 271 | 4.8 | 0.0 | 0.00 | 0.00 | 0.00 | 46 | 1014.3 |
| 20260506235308 | 26 | 322 | 6.4 | 8.0 | 0.00 | 0.00 | 0.00 | 46 | 1015.3 |
| 20260506235241 | 26 | 271 | 4.8 | 0.0 | 0.00 | 0.00 | 0.00 | 45 | 1014.3 |
| 20260506235211 | 26 | 271 | 4.8 | 0.0 | 0.00 | 0.00 | 0.00 | 44 | 1014.3 |
| 20260506235128 | 26 | 271 | 4.8 | 0.0 | 0.00 | 0.00 | 0.00 | 43 | 1014.3 |
| 20260506235058 | 26 | 271 | 4.8 | 0.0 | 0.00 | 0.00 | 0.00 | 44 | 1014.3 |
| 20260506235028 | 26 | 271 | 4.8 | 6.4 | 0.00 | 0.00 | 0.00 | 44 | 1014.3 |
| 20260506234938 | 26 | 278 | 4.8 | 0.0 | 0.00 | 0.00 | 0.00 | 45 | 1014.4 |
| 20260506234908 | 26 | 278 | 4.8 | 0.0 | 0.00 | 0.00 | 0.00 | 44 | 1014.4 |
| 20260506234844 | 26 | 278 | 4.8 | 0.0 | 0.00 | 0.00 | 0.00 | 45 | 1014.4 |
| 20260506234807 | 26 | 278 | 4.8 | 0.0 | 0.00 | 0.00 | 0.00 | 45 | 1014.4 |
| 20260506234805 | 25 | 264 | 6.4 | 6.4 | 0.00 | 0.00 | 0.00 | 46 | 1015.1 |
| 20260506234731 | 26 | 278 | 4.8 | 0.0 | 0.00 | 0.00 | 0.00 | 44 | 1014.4 |
| 20260506234701 | 26 | 278 | 4.8 | 0.0 | 0.00 | 0.00 | 0.00 | 45 | 1014.4 |
| 20260506234441 | 26 | 278 | 4.8 | 0.0 | 0.00 | 0.00 | 0.00 | 44 | 1014.4 |
| 20260506234358 | 26 | 278 | 4.8 | 0.0 | 0.00 | 0.00 | 0.00 | 44 | 1014.4 |
| 20260506234302 | 25 | 278 | 4.8 | 6.4 | 0.00 | 0.00 | 0.00 | 46 | 1015.1 |
| 20260506234203 | 26 | 278 | 4.8 | 0.0 | 0.00 | 0.00 | 0.00 | 45 | 1014.4 |
| 20260506234120 | 26 | 278 | 4.8 | 0.0 | 0.00 | 0.00 | 0.00 | 44 | 1014.4 |
| 20260506234051 | 26 | 278 | 4.8 | 0.0 | 0.00 | 0.00 | 0.00 | 45 | 1014.4 |
| 20260506234012 | 26 | 278 | 4.8 | 4.8 | 0.00 | 0.00 | 0.00 | 44 | 1014.4 |
| 20260506233922 | 26 | 254 | 6.4 | 0.0 | 0.00 | 0.00 | 0.00 | 44 | 1014.5 |
| 20260506233800 | 25 | 284 | 3.2 | 16.1 | 0.00 | 0.00 | 0.00 | 46 | 1015.2 |
| 20260506233728 | 26 | 254 | 6.4 | 0.0 | 0.00 | 0.00 | 0.00 | 44 | 1014.5 |
| 20260506233652 | 26 | 254 | 6.4 | 0.0 | 0.00 | 0.00 | 0.00 | 44 | 1014.5 |
| 20260506233256 | 26 | 249 | 1.6 | 8.0 | 0.00 | 0.00 | 0.00 | 45 | 1015.0 |
| 20260506233242 | 26 | 254 | 6.4 | 0.0 | 0.00 | 0.00 | 0.00 | 45 | 1014.5 |
| 20260506233159 | 26 | 254 | 6.4 | 0.0 | 0.00 | 0.00 | 0.00 | 45 | 1014.5 |
| 20260506233135 | 26 | 254 | 6.4 | 0.0 | 0.00 | 0.00 | 0.00 | 45 | 1014.5 |
| 20260506232939 | 26 | 254 | 6.4 | 0.0 | 0.00 | 0.00 | 0.00 | 45 | 1014.5 |
| 20260506232908 | 26 | 254 | 6.4 | 0.0 | 0.00 | 0.00 | 0.00 | 44 | 1014.5 |
| 20260506232845 | 26 | 254 | 6.4 | 0.0 | 0.00 | 0.00 | 0.00 | 44 | 1014.5 |
| 20260506232814 | 26 | 254 | 6.4 | 9.7 | 0.00 | 0.00 | 0.00 | 44 | 1014.5 |
| 20260506232748 | 26 | 208 | 1.6 | 6.4 | 0.00 | 0.00 | 0.00 | 44 | 1015.2 |
| 20260506232738 | 26 | 331 | 4.8 | 0.0 | 0.00 | 0.00 | 0.00 | 45 | 1014.4 |
| 20260506232714 | 26 | 331 | 4.8 | 0.0 | 0.00 | 0.00 | 0.00 | 44 | 1014.4 |
| 20260506232638 | 26 | 331 | 4.8 | 0.0 | 0.00 | 0.00 | 0.00 | 45 | 1014.4 |
| 20260506232555 | 26 | 331 | 4.8 | 0.0 | 0.00 | 0.00 | 0.00 | 44 | 1014.4 |
| 20260506232452 | 26 | 331 | 4.8 | 0.0 | 0.00 | 0.00 | 0.00 | 44 | 1014.4 |
| 20260506232429 | 26 | 331 | 4.8 | 0.0 | 0.00 | 0.00 | 0.00 | 45 | 1014.4 |
| 20260506232352 | 26 | 331 | 4.8 | 0.0 | 0.00 | 0.00 | 0.00 | 44 | 1014.4 |
| 20260506232256 | 26 | 331 | 4.8 | 0.0 | 0.00 | 0.00 | 0.00 | 45 | 1014.4 |
| 20260506232247 | 26 | 181 | 1.6 | 6.4 | 0.00 | 0.00 | 0.00 | 45 | 1015.1 |
| 20260506232232 | 26 | 331 | 4.8 | 0.0 | 0.00 | 0.00 | 0.00 | 45 | 1014.4 |
| 20260506232202 | 26 | 331 | 4.8 | 0.0 | 0.00 | 0.00 | 0.00 | 44 | 1014.4 |
| 20260506232118 | 27 | 331 | 4.8 | 0.0 | 0.00 | 0.00 | 0.00 | 44 | 1014.4 |
| 20260506231905 | 27 | 331 | 4.8 | 0.0 | 0.00 | 0.00 | 0.00 | 44 | 1014.4 |
| 20260506231835 | 27 | 331 | 4.8 | 4.8 | 0.00 | 0.00 | 0.00 | 44 | 1014.4 |
| 20260506231756 | 27 | 296 | 3.2 | 0.0 | 0.00 | 0.00 | 0.00 | 45 | 1014.6 |
| 20260506231745 | 26 | 39 | 0.0 | 8.0 | 0.00 | 0.00 | 0.00 | 46 | 1015.2 |
| 20260506231733 | 26 | 296 | 3.2 | 0.0 | 0.00 | 0.00 | 0.00 | 45 | 1014.6 |
| 20260506231709 | 26 | 296 | 3.2 | 0.0 | 0.00 | 0.00 | 0.00 | 45 | 1014.6 |
| 20260506231645 | 26 | 296 | 3.2 | 0.0 | 0.00 | 0.00 | 0.00 | 44 | 1014.6 |
| 20260506231554 | 26 | 296 | 3.2 | 0.0 | 0.00 | 0.00 | 0.00 | 45 | 1014.6 |
| 20260506231518 | 26 | 296 | 3.2 | 0.0 | 0.00 | 0.00 | 0.00 | 45 | 1014.6 |
| 20260506231436 | 26 | 296 | 3.2 | 0.0 | 0.00 | 0.00 | 0.00 | 45 | 1014.6 |
| 20260506231243 | 26 | 304 | 6.4 | 9.7 | 0.00 | 0.00 | 0.00 | 45 | 1015.2 |
| 20260506231214 | 26 | 296 | 3.2 | 0.0 | 0.00 | 0.00 | 0.00 | 45 | 1014.6 |
| 20260506231143 | 27 | 296 | 3.2 | 0.0 | 0.00 | 0.00 | 0.00 | 44 | 1014.6 |
| 20260506230942 | 26 | 296 | 3.2 | 0.0 | 0.00 | 0.00 | 0.00 | 44 | 1014.6 |
| 20260506230912 | 27 | 296 | 3.2 | 0.0 | 0.00 | 0.00 | 0.00 | 45 | 1014.6 |
| 20260506230842 | 27 | 296 | 3.2 | 0.0 | 0.00 | 0.00 | 0.00 | 44 | 1014.6 |
| 20260506230740 | 26 | 336 | 3.2 | 8.0 | 0.00 | 0.00 | 0.00 | 44 | 1015.1 |
| 20260506230641 | 26 | 296 | 3.2 | 3.2 | 0.00 | 0.00 | 0.00 | 45 | 1014.6 |
| 20260506230552 | 26 | 290 | 4.8 | 0.0 | 0.00 | 0.00 | 0.00 | 45 | 1014.8 |
| 20260506230515 | 26 | 290 | 4.8 | 0.0 | 0.00 | 0.00 | 0.00 | 44 | 1014.8 |
| 20260506230242 | 26 | 290 | 4.8 | 0.0 | 0.00 | 0.00 | 0.00 | 45 | 1014.8 |
| 20260506230236 | 26 | 290 | 3.2 | 6.4 | 0.00 | 0.00 | 0.00 | 44 | 1015.2 |
| 20260506230206 | 26 | 290 | 4.8 | 0.0 | 0.00 | 0.00 | 0.00 | 45 | 1014.8 |
| 20260506230142 | 26 | 290 | 4.8 | 0.0 | 0.00 | 0.00 | 0.00 | 45 | 1014.8 |
| 20260506230112 | 26 | 290 | 4.8 | 0.0 | 0.00 | 0.00 | 0.00 | 44 | 1014.8 |
| 20260506225823 | 26 | 290 | 4.8 | 0.0 | 0.00 | 0.00 | 0.00 | 45 | 1014.8 |
| 20260506225733 | 26 | 19 | 1.6 | 8.0 | 0.00 | 0.00 | 0.00 | 45 | 1015.3 |
| 20260506225622 | 26 | 290 | 4.8 | 0.0 | 0.00 | 0.00 | 0.00 | 45 | 1014.8 |
| 20260506225546 | 26 | 290 | 4.8 | 0.0 | 0.00 | 0.00 | 0.00 | 45 | 1014.8 |
| 20260506225516 | 26 | 290 | 4.8 | 0.0 | 0.00 | 0.00 | 0.00 | 44 | 1014.8 |
| 20260506225445 | 26 | 290 | 4.8 | 8.0 | 0.00 | 0.00 | 0.00 | 44 | 1014.8 |
| 20260506225408 | 26 | 257 | 6.4 | 0.0 | 0.00 | 0.00 | 0.00 | 45 | 1014.9 |
| 20260506225345 | 26 | 257 | 6.4 | 0.0 | 0.00 | 0.00 | 0.00 | 44 | 1014.9 |
| 20260506225321 | 26 | 257 | 6.4 | 0.0 | 0.00 | 0.00 | 0.00 | 44 | 1014.9 |
| 20260506225257 | 26 | 257 | 6.4 | 0.0 | 0.00 | 0.00 | 0.00 | 45 | 1014.9 |
| 20260506225230 | 26 | 300 | 3.2 | 6.4 | 0.00 | 0.00 | 0.00 | 45 | 1015.3 |
| 20260506225227 | 26 | 257 | 6.4 | 0.0 | 0.00 | 0.00 | 0.00 | 44 | 1014.9 |
| 20260506225204 | 27 | 257 | 6.4 | 0.0 | 0.00 | 0.00 | 0.00 | 45 | 1014.9 |
| 20260506225140 | 27 | 257 | 6.4 | 0.0 | 0.00 | 0.00 | 0.00 | 45 | 1014.9 |
| 20260506225109 | 27 | 257 | 6.4 | 0.0 | 0.00 | 0.00 | 0.00 | 44 | 1014.9 |
| 20260506225046 | 27 | 257 | 6.4 | 0.0 | 0.00 | 0.00 | 0.00 | 44 | 1014.9 |
| 20260506224726 | 26 | 337 | 1.6 | 8.0 | 0.00 | 0.00 | 0.00 | 45 | 1015.3 |
| 20260506224648 | 26 | 257 | 6.4 | 0.0 | 0.00 | 0.00 | 0.00 | 45 | 1014.9 |
| 20260506224618 | 26 | 257 | 6.4 | 0.0 | 0.00 | 0.00 | 0.00 | 43 | 1014.9 |
| 20260506224506 | 26 | 257 | 6.4 | 0.0 | 0.00 | 0.00 | 0.00 | 44 | 1014.9 |
| 20260506224442 | 26 | 257 | 6.4 | 0.0 | 0.00 | 0.00 | 0.00 | 44 | 1014.9 |
| 20260506224412 | 26 | 257 | 6.4 | 0.0 | 0.00 | 0.00 | 0.00 | 43 | 1014.9 |
| 20260506224342 | 26 | 257 | 6.4 | 0.0 | 0.00 | 0.00 | 0.00 | 44 | 1014.9 |
| 20260506224224 | 26 | 8 | 3.2 | 8.0 | 0.00 | 0.00 | 0.00 | 44 | 1015.4 |
| 20260506224135 | 27 | 345 | 3.2 | 0.0 | 0.00 | 0.00 | 0.00 | 44 | 1015.1 |
| 20260506224111 | 26 | 345 | 3.2 | 0.0 | 0.00 | 0.00 | 0.00 | 44 | 1015.1 |
| 20260506223857 | 26 | 345 | 3.2 | 0.0 | 0.00 | 0.00 | 0.00 | 44 | 1015.1 |
| 20260506223807 | 26 | 345 | 3.2 | 0.0 | 0.00 | 0.00 | 0.00 | 45 | 1015.1 |
| 20260506223720 | 26 | 216 | 3.2 | 8.0 | 0.00 | 0.00 | 0.00 | 44 | 1015.5 |
| 20260506223606 | 26 | 345 | 3.2 | 0.0 | 0.00 | 0.00 | 0.00 | 45 | 1015.1 |
| 20260506223524 | 26 | 345 | 3.2 | 0.0 | 0.00 | 0.00 | 0.00 | 44 | 1015.1 |
| 20260506223427 | 26 | 345 | 3.2 | 0.0 | 0.00 | 0.00 | 0.00 | 44 | 1015.1 |
| 20260506223225 | 27 | 345 | 3.2 | 0.0 | 0.00 | 0.00 | 0.00 | 43 | 1015.1 |
| 20260506223216 | 26 | 289 | 1.6 | 9.7 | 0.00 | 0.00 | 0.00 | 45 | 1015.6 |
| 20260506223024 | 27 | 345 | 3.2 | 0.0 | 0.00 | 0.00 | 0.00 | 43 | 1015.1 |
| 20260506222817 | 27 | 248 | 4.8 | 0.0 | 0.00 | 0.00 | 0.00 | 43 | 1015.0 |
| 20260506222754 | 27 | 248 | 4.8 | 0.0 | 0.00 | 0.00 | 0.00 | 42 | 1015.0 |
| 20260506222713 | 26 | 292 | 3.2 | 6.4 | 0.00 | 0.00 | 0.00 | 45 | 1015.6 |
| 20260506222521 | 27 | 248 | 4.8 | 0.0 | 0.00 | 0.00 | 0.00 | 43 | 1015.0 |
| 20260506222425 | 27 | 248 | 4.8 | 0.0 | 0.00 | 0.00 | 0.00 | 44 | 1015.0 |
| 20260506222328 | 27 | 248 | 4.8 | 0.0 | 0.00 | 0.00 | 0.00 | 43 | 1015.0 |
| 20260506222208 | 27 | 275 | 9.7 | 9.7 | 0.00 | 0.00 | 0.00 | 44 | 1015.5 |
| 20260506222134 | 27 | 248 | 4.8 | 0.0 | 0.00 | 0.00 | 0.00 | 42 | 1015.0 |
| 20260506222042 | 27 | 248 | 4.8 | 0.0 | 0.00 | 0.00 | 0.00 | 42 | 1015.0 |
| 20260506222008 | 26 | 248 | 4.8 | 0.0 | 0.00 | 0.00 | 0.00 | 44 | 1015.0 |
| 20260506221938 | 26 | 248 | 4.8 | 0.0 | 0.00 | 0.00 | 0.00 | 43 | 1015.0 |
| 20260506221848 | 26 | 248 | 4.8 | 0.0 | 0.00 | 0.00 | 0.00 | 43 | 1015.0 |
| 20260506221824 | 26 | 248 | 4.8 | 0.0 | 0.00 | 0.00 | 0.00 | 43 | 1015.0 |
| 20260506221754 | 26 | 248 | 4.8 | 6.4 | 0.00 | 0.00 | 0.00 | 43 | 1015.0 |
| 20260506221717 | 26 | 272 | 1.6 | 0.0 | 0.00 | 0.00 | 0.00 | 43 | 1015.3 |
| 20260506221707 | 26 | 279 | 1.6 | 8.0 | 0.00 | 0.00 | 0.00 | 45 | 1015.7 |
| 20260506221647 | 26 | 272 | 1.6 | 0.0 | 0.00 | 0.00 | 0.00 | 44 | 1015.3 |
| 20260506221617 | 26 | 272 | 1.6 | 0.0 | 0.00 | 0.00 | 0.00 | 43 | 1015.3 |
| 20260506221553 | 26 | 272 | 1.6 | 0.0 | 0.00 | 0.00 | 0.00 | 44 | 1015.3 |
| 20260506221457 | 26 | 272 | 1.6 | 0.0 | 0.00 | 0.00 | 0.00 | 43 | 1015.3 |
| 20260506221427 | 27 | 272 | 1.6 | 0.0 | 0.00 | 0.00 | 0.00 | 43 | 1015.3 |
| 20260506221357 | 27 | 272 | 1.6 | 0.0 | 0.00 | 0.00 | 0.00 | 42 | 1015.3 |
| 20260506221204 | 26 | 247 | 4.8 | 6.4 | 0.00 | 0.00 | 0.00 | 44 | 1015.6 |
| 20260506221149 | 27 | 272 | 1.6 | 0.0 | 0.00 | 0.00 | 0.00 | 42 | 1015.3 |
| 20260506221119 | 27 | 272 | 1.6 | 0.0 | 0.00 | 0.00 | 0.00 | 41 | 1015.3 |
| 20260506221049 | 27 | 272 | 1.6 | 0.0 | 0.00 | 0.00 | 0.00 | 42 | 1015.3 |
| 20260506220810 | 27 | 272 | 1.6 | 0.0 | 0.00 | 0.00 | 0.00 | 42 | 1015.3 |
| 20260506220701 | 26 | 252 | 4.8 | 6.4 | 0.00 | 0.00 | 0.00 | 44 | 1015.7 |
| 20260506220608 | 27 | 272 | 1.6 | 0.0 | 0.00 | 0.00 | 0.00 | 40 | 1015.3 |
| 20260506220537 | 27 | 272 | 1.6 | 0.0 | 0.00 | 0.00 | 0.00 | 41 | 1015.3 |
| 20260506220506 | 27 | 272 | 1.6 | 3.2 | 0.00 | 0.00 | 0.00 | 41 | 1015.3 |
| 20260506220429 | 27 | 189 | 8.0 | 0.0 | 0.00 | 0.00 | 0.00 | 41 | 1015.3 |
| 20260506220358 | 27 | 189 | 8.0 | 0.0 | 0.00 | 0.00 | 0.00 | 42 | 1015.3 |
| 20260506220328 | 27 | 189 | 8.0 | 0.0 | 0.00 | 0.00 | 0.00 | 42 | 1015.3 |
| 20260506220258 | 27 | 189 | 8.0 | 0.0 | 0.00 | 0.00 | 0.00 | 43 | 1015.3 |
| 20260506220228 | 27 | 189 | 8.0 | 0.0 | 0.00 | 0.00 | 0.00 | 42 | 1015.3 |
| 20260506220158 | 27 | 189 | 8.0 | 0.0 | 0.00 | 0.00 | 0.00 | 43 | 1015.3 |
| 20260506220156 | 27 | 326 | 3.2 | 6.4 | 0.00 | 0.00 | 0.00 | 44 | 1015.8 |
| 20260506220127 | 26 | 189 | 8.0 | 0.0 | 0.00 | 0.00 | 0.00 | 43 | 1015.3 |
| 20260506220056 | 26 | 189 | 8.0 | 0.0 | 0.00 | 0.00 | 0.00 | 42 | 1015.3 |
| 20260506220026 | 26 | 189 | 8.0 | 0.0 | 0.00 | 0.00 | 0.00 | 43 | 1015.3 |
| 20260506215954 | 26 | 189 | 8.0 | 0.0 | 0.00 | 0.00 | 0.00 | 44 | 1015.3 |
| 20260506215924 | 26 | 189 | 8.0 | 0.0 | 0.00 | 0.00 | 0.00 | 43 | 1015.3 |
| 20260506215854 | 26 | 189 | 8.0 | 0.0 | 0.00 | 0.00 | 0.00 | 43 | 1015.3 |
| 20260506215804 | 26 | 189 | 8.0 | 0.0 | 0.00 | 0.00 | 0.00 | 42 | 1015.3 |
| 20260506215714 | 26 | 189 | 8.0 | 0.0 | 0.00 | 0.00 | 0.00 | 42 | 1015.3 |
| 20260506215653 | 27 | 271 | 1.6 | 6.4 | 0.00 | 0.00 | 0.00 | 43 | 1015.8 |
| 20260506215638 | 26 | 189 | 8.0 | 0.0 | 0.00 | 0.00 | 0.00 | 42 | 1015.3 |
| 20260506215607 | 26 | 189 | 8.0 | 0.0 | 0.00 | 0.00 | 0.00 | 42 | 1015.3 |
| 20260506215537 | 27 | 189 | 8.0 | 9.7 | 0.00 | 0.00 | 0.00 | 40 | 1015.3 |
| 20260506215501 | 27 | 9 | 6.4 | 0.0 | 0.00 | 0.00 | 0.00 | 40 | 1015.3 |
| 20260506215307 | 27 | 9 | 6.4 | 0.0 | 0.00 | 0.00 | 0.00 | 40 | 1015.3 |
| 20260506215148 | 26 | 296 | 3.2 | 6.4 | 0.00 | 0.00 | 0.00 | 43 | 1016.0 |
| 20260506215046 | 27 | 9 | 6.4 | 0.0 | 0.00 | 0.00 | 0.00 | 42 | 1015.3 |
| 20260506215015 | 26 | 9 | 6.4 | 0.0 | 0.00 | 0.00 | 0.00 | 42 | 1015.3 |
| 20260506214815 | 26 | 9 | 6.4 | 0.0 | 0.00 | 0.00 | 0.00 | 41 | 1015.3 |
| 20260506214645 | 26 | 234 | 4.8 | 9.7 | 0.00 | 0.00 | 0.00 | 43 | 1016.0 |
| 20260506214608 | 26 | 9 | 6.4 | 0.0 | 0.00 | 0.00 | 0.00 | 42 | 1015.3 |
| 20260506214538 | 26 | 9 | 6.4 | 0.0 | 0.00 | 0.00 | 0.00 | 41 | 1015.3 |
| 20260506214514 | 27 | 9 | 6.4 | 0.0 | 0.00 | 0.00 | 0.00 | 42 | 1015.3 |
| 20260506214425 | 27 | 9 | 6.4 | 0.0 | 0.00 | 0.00 | 0.00 | 41 | 1015.3 |
| 20260506214329 | 27 | 9 | 6.4 | 0.0 | 0.00 | 0.00 | 0.00 | 42 | 1015.3 |
| 20260506214143 | 27 | 289 | 3.2 | 4.8 | 0.00 | 0.00 | 0.00 | 41 | 1016.0 |
| 20260506214128 | 27 | 9 | 6.4 | 6.4 | 0.00 | 0.00 | 0.00 | 41 | 1015.3 |
| 20260506214051 | 27 | 343 | 3.2 | 0.0 | 0.00 | 0.00 | 0.00 | 40 | 1015.6 |
| 20260506213851 | 26 | 343 | 3.2 | 0.0 | 0.00 | 0.00 | 0.00 | 41 | 1015.6 |
| 20260506213819 | 26 | 343 | 3.2 | 0.0 | 0.00 | 0.00 | 0.00 | 42 | 1015.6 |
| 20260506213756 | 26 | 343 | 3.2 | 0.0 | 0.00 | 0.00 | 0.00 | 42 | 1015.6 |
| 20260506213725 | 26 | 343 | 3.2 | 0.0 | 0.00 | 0.00 | 0.00 | 43 | 1015.6 |
| 20260506213654 | 26 | 343 | 3.2 | 0.0 | 0.00 | 0.00 | 0.00 | 42 | 1015.6 |
| 20260506213641 | 27 | 237 | 4.8 | 6.4 | 0.00 | 0.00 | 0.00 | 43 | 1016.4 |
| 20260506213624 | 26 | 343 | 3.2 | 0.0 | 0.00 | 0.00 | 0.00 | 43 | 1015.6 |
| 20260506213553 | 26 | 343 | 3.2 | 0.0 | 0.00 | 0.00 | 0.00 | 43 | 1015.6 |
| 20260506213524 | 26 | 343 | 3.2 | 0.0 | 0.00 | 0.00 | 0.00 | 42 | 1015.6 |
| 20260506213304 | 26 | 343 | 3.2 | 0.0 | 0.00 | 0.00 | 0.00 | 42 | 1015.6 |
| 20260506213240 | 26 | 343 | 3.2 | 0.0 | 0.00 | 0.00 | 0.00 | 42 | 1015.6 |
| 20260506213216 | 26 | 343 | 3.2 | 0.0 | 0.00 | 0.00 | 0.00 | 43 | 1015.6 |
| 20260506213138 | 26 | 43 | 3.2 | 11.3 | 0.00 | 0.00 | 0.00 | 42 | 1016.0 |
| 20260506213127 | 26 | 343 | 3.2 | 0.0 | 0.00 | 0.00 | 0.00 | 42 | 1015.6 |
| 20260506213057 | 26 | 343 | 3.2 | 0.0 | 0.00 | 0.00 | 0.00 | 42 | 1015.6 |
| 20260506213026 | 26 | 343 | 3.2 | 6.4 | 0.00 | 0.00 | 0.00 | 42 | 1015.6 |
| 20260506212948 | 26 | 303 | 3.2 | 0.0 | 0.00 | 0.00 | 0.00 | 42 | 1015.5 |
| 20260506212917 | 26 | 303 | 3.2 | 0.0 | 0.00 | 0.00 | 0.00 | 43 | 1015.5 |
| 20260506212635 | 26 | 268 | 1.6 | 3.2 | 0.00 | 0.00 | 0.00 | 42 | 1016.4 |
| 20260506212625 | 26 | 303 | 3.2 | 0.0 | 0.00 | 0.00 | 0.00 | 42 | 1015.5 |
| 20260506212424 | 25 | 303 | 3.2 | 0.0 | 0.00 | 0.00 | 0.00 | 42 | 1015.5 |
| 20260506212341 | 25 | 303 | 3.2 | 0.0 | 0.00 | 0.00 | 0.00 | 42 | 1015.5 |
| 20260506212318 | 25 | 303 | 3.2 | 0.0 | 0.00 | 0.00 | 0.00 | 43 | 1015.5 |
| 20260506212130 | 27 | 0 | 1.6 | 6.4 | 0.00 | 0.00 | 0.00 | 42 | 1016.3 |
| 20260506212117 | 25 | 303 | 3.2 | 0.0 | 0.00 | 0.00 | 0.00 | 43 | 1015.5 |
| 20260506212048 | 25 | 303 | 3.2 | 0.0 | 0.00 | 0.00 | 0.00 | 42 | 1015.5 |
| 20260506211949 | 25 | 303 | 3.2 | 0.0 | 0.00 | 0.00 | 0.00 | 42 | 1015.5 |
| 20260506211919 | 25 | 303 | 3.2 | 0.0 | 0.00 | 0.00 | 0.00 | 42 | 1015.5 |
| 20260506211847 | 25 | 303 | 3.2 | 0.0 | 0.00 | 0.00 | 0.00 | 41 | 1015.5 |
| 20260506211817 | 25 | 303 | 3.2 | 0.0 | 0.00 | 0.00 | 0.00 | 42 | 1015.5 |
| 20260506211626 | 26 | 252 | 3.2 | 6.4 | 0.00 | 0.00 | 0.00 | 42 | 1016.5 |
| 20260506211557 | 25 | 304 | 1.6 | 0.0 | 0.00 | 0.00 | 0.00 | 42 | 1015.5 |
| 20260506211507 | 25 | 304 | 1.6 | 0.0 | 0.00 | 0.00 | 0.00 | 43 | 1015.5 |
| 20260506211411 | 25 | 304 | 1.6 | 0.0 | 0.00 | 0.00 | 0.00 | 43 | 1015.5 |
| 20260506211341 | 25 | 304 | 1.6 | 0.0 | 0.00 | 0.00 | 0.00 | 44 | 1015.5 |
| 20260506211310 | 25 | 304 | 1.6 | 0.0 | 0.00 | 0.00 | 0.00 | 43 | 1015.5 |
| 20260506211214 | 25 | 304 | 1.6 | 0.0 | 0.00 | 0.00 | 0.00 | 43 | 1015.5 |
| 20260506211123 | 26 | 277 | 6.4 | 6.4 | 0.00 | 0.00 | 0.00 | 42 | 1016.3 |
| 20260506210837 | 25 | 304 | 1.6 | 0.0 | 0.00 | 0.00 | 0.00 | 41 | 1015.5 |
| 20260506210741 | 25 | 304 | 1.6 | 0.0 | 0.00 | 0.00 | 0.00 | 41 | 1015.5 |
| 20260506210658 | 26 | 304 | 1.6 | 0.0 | 0.00 | 0.00 | 0.00 | 41 | 1015.5 |
| 20260506210628 | 25 | 304 | 1.6 | 0.0 | 0.00 | 0.00 | 0.00 | 42 | 1015.5 |
| 20260506210620 | 26 | 5 | 0.0 | 3.2 | 0.00 | 0.00 | 0.00 | 41 | 1016.5 |
| 20260506210545 | 25 | 304 | 1.6 | 3.2 | 0.00 | 0.00 | 0.00 | 43 | 1015.5 |
| 20260506210509 | 25 | 192 | 4.8 | 0.0 | 0.00 | 0.00 | 0.00 | 43 | 1015.8 |
| 20260506210315 | 25 | 192 | 4.8 | 0.0 | 0.00 | 0.00 | 0.00 | 43 | 1015.8 |
| 20260506210245 | 25 | 192 | 4.8 | 0.0 | 0.00 | 0.00 | 0.00 | 42 | 1015.8 |
| 20260506210116 | 25 | 253 | 4.8 | 9.7 | 0.00 | 0.00 | 0.00 | 42 | 1016.6 |
| 20260506205911 | 25 | 192 | 4.8 | 0.0 | 0.00 | 0.00 | 0.00 | 44 | 1015.8 |
| 20260506205841 | 25 | 192 | 4.8 | 0.0 | 0.00 | 0.00 | 0.00 | 43 | 1015.8 |
| 20260506205811 | 25 | 192 | 4.8 | 0.0 | 0.00 | 0.00 | 0.00 | 42 | 1015.8 |
| 20260506205741 | 25 | 192 | 4.8 | 0.0 | 0.00 | 0.00 | 0.00 | 43 | 1015.8 |
| 20260506205658 | 25 | 192 | 4.8 | 0.0 | 0.00 | 0.00 | 0.00 | 42 | 1015.8 |
| 20260506205613 | 25 | 267 | 6.4 | 8.0 | 0.00 | 0.00 | 0.00 | 43 | 1016.2 |
| 20260506205602 | 25 | 192 | 4.8 | 0.0 | 0.00 | 0.00 | 0.00 | 43 | 1015.8 |
| 20260506205532 | 25 | 192 | 4.8 | 0.0 | 0.00 | 0.00 | 0.00 | 43 | 1015.8 |
| 20260506205502 | 25 | 192 | 4.8 | 0.0 | 0.00 | 0.00 | 0.00 | 44 | 1015.8 |
| 20260506205431 | 24 | 192 | 4.8 | 0.0 | 0.00 | 0.00 | 0.00 | 44 | 1015.8 |
| 20260506205408 | 25 | 192 | 4.8 | 0.0 | 0.00 | 0.00 | 0.00 | 43 | 1015.8 |
| 20260506205337 | 24 | 192 | 4.8 | 0.0 | 0.00 | 0.00 | 0.00 | 44 | 1015.8 |
| 20260506205306 | 24 | 192 | 4.8 | 4.8 | 0.00 | 0.00 | 0.00 | 43 | 1015.8 |
| 20260506205203 | 24 | 143 | 6.4 | 0.0 | 0.00 | 0.00 | 0.00 | 44 | 1015.8 |
| 20260506205108 | 26 | 161 | 1.6 | 3.2 | 0.00 | 0.00 | 0.00 | 42 | 1016.7 |
| 20260506205006 | 24 | 143 | 6.4 | 0.0 | 0.00 | 0.00 | 0.00 | 45 | 1015.8 |
| 20260506204804 | 23 | 143 | 6.4 | 0.0 | 0.00 | 0.00 | 0.00 | 44 | 1015.8 |
| 20260506204721 | 23 | 143 | 6.4 | 0.0 | 0.00 | 0.00 | 0.00 | 44 | 1015.8 |
| 20260506204645 | 23 | 143 | 6.4 | 0.0 | 0.00 | 0.00 | 0.00 | 44 | 1015.8 |
| 20260506204621 | 23 | 143 | 6.4 | 0.0 | 0.00 | 0.00 | 0.00 | 45 | 1015.8 |
| 20260506204606 | 25 | 323 | 3.2 | 8.0 | 0.00 | 0.00 | 0.00 | 43 | 1016.6 |
| 20260506204558 | 23 | 143 | 6.4 | 0.0 | 0.00 | 0.00 | 0.00 | 44 | 1015.8 |
| 20260506204528 | 23 | 143 | 6.4 | 0.0 | 0.00 | 0.00 | 0.00 | 45 | 1015.8 |
| 20260506204458 | 23 | 143 | 6.4 | 0.0 | 0.00 | 0.00 | 0.00 | 44 | 1015.8 |
| 20260506204415 | 23 | 143 | 6.4 | 0.0 | 0.00 | 0.00 | 0.00 | 45 | 1015.8 |
| 20260506204319 | 23 | 143 | 6.4 | 0.0 | 0.00 | 0.00 | 0.00 | 44 | 1015.8 |
| 20260506204103 | 25 | 247 | 6.4 | 6.4 | 0.00 | 0.00 | 0.00 | 43 | 1016.6 |
| 20260506203915 | 23 | 233 | 8.0 | 0.0 | 0.00 | 0.00 | 0.00 | 45 | 1016.1 |
| 20260506203832 | 23 | 233 | 8.0 | 0.0 | 0.00 | 0.00 | 0.00 | 44 | 1016.1 |
| 20260506203802 | 23 | 233 | 8.0 | 0.0 | 0.00 | 0.00 | 0.00 | 44 | 1016.1 |
| 20260506203732 | 23 | 233 | 8.0 | 0.0 | 0.00 | 0.00 | 0.00 | 43 | 1016.1 |
| 20260506203702 | 23 | 233 | 8.0 | 0.0 | 0.00 | 0.00 | 0.00 | 44 | 1016.1 |
| 20260506203632 | 24 | 233 | 8.0 | 0.0 | 0.00 | 0.00 | 0.00 | 44 | 1016.1 |
| 20260506203608 | 24 | 233 | 8.0 | 0.0 | 0.00 | 0.00 | 0.00 | 43 | 1016.1 |
| 20260506203602 | 23 | 225 | 4.8 | 8.0 | 0.00 | 0.00 | 0.00 | 44 | 1016.6 |
| 20260506203538 | 24 | 233 | 8.0 | 0.0 | 0.00 | 0.00 | 0.00 | 44 | 1016.1 |
| 20260506203514 | 24 | 233 | 8.0 | 0.0 | 0.00 | 0.00 | 0.00 | 44 | 1016.1 |
| 20260506203444 | 23 | 233 | 8.0 | 0.0 | 0.00 | 0.00 | 0.00 | 45 | 1016.1 |
| 20260506203348 | 23 | 233 | 8.0 | 0.0 | 0.00 | 0.00 | 0.00 | 46 | 1016.1 |
| 20260506203154 | 23 | 233 | 8.0 | 0.0 | 0.00 | 0.00 | 0.00 | 44 | 1016.1 |
| 20260506203124 | 23 | 233 | 8.0 | 0.0 | 0.00 | 0.00 | 0.00 | 45 | 1016.1 |
| 20260506203057 | 23 | 198 | 4.8 | 9.7 | 0.00 | 0.00 | 0.00 | 44 | 1016.8 |
| 20260506202924 | 23 | 233 | 8.0 | 0.0 | 0.00 | 0.00 | 0.00 | 45 | 1016.1 |
| 20260506202853 | 23 | 233 | 8.0 | 12.9 | 0.00 | 0.00 | 0.00 | 45 | 1016.1 |
| 20260506202816 | 23 | 185 | 6.4 | 0.0 | 0.00 | 0.00 | 0.00 | 46 | 1016.1 |
| 20260506202746 | 23 | 185 | 6.4 | 0.0 | 0.00 | 0.00 | 0.00 | 45 | 1016.1 |
| 20260506202650 | 23 | 185 | 6.4 | 0.0 | 0.00 | 0.00 | 0.00 | 45 | 1016.1 |
| 20260506202626 | 23 | 185 | 6.4 | 0.0 | 0.00 | 0.00 | 0.00 | 46 | 1016.1 |
| 20260506202602 | 23 | 185 | 6.4 | 0.0 | 0.00 | 0.00 | 0.00 | 45 | 1016.1 |
| 20260506202555 | 24 | 187 | 1.6 | 6.4 | 0.00 | 0.00 | 0.00 | 44 | 1017.0 |
| 20260506202539 | 23 | 185 | 6.4 | 0.0 | 0.00 | 0.00 | 0.00 | 45 | 1016.1 |
| 20260506202515 | 23 | 185 | 6.4 | 0.0 | 0.00 | 0.00 | 0.00 | 46 | 1016.1 |
| 20260506202451 | 23 | 185 | 6.4 | 0.0 | 0.00 | 0.00 | 0.00 | 45 | 1016.1 |
| 20260506202421 | 22 | 185 | 6.4 | 0.0 | 0.00 | 0.00 | 0.00 | 45 | 1016.1 |
| 20260506202051 | 23 | 195 | 3.2 | 12.9 | 0.00 | 0.00 | 0.00 | 45 | 1017.0 |
| 20260506202038 | 23 | 185 | 6.4 | 0.0 | 0.00 | 0.00 | 0.00 | 45 | 1016.1 |
| 20260506201937 | 23 | 185 | 6.4 | 0.0 | 0.00 | 0.00 | 0.00 | 46 | 1016.1 |
| 20260506201854 | 22 | 185 | 6.4 | 0.0 | 0.00 | 0.00 | 0.00 | 46 | 1016.1 |
| 20260506201824 | 22 | 185 | 6.4 | 0.0 | 0.00 | 0.00 | 0.00 | 45 | 1016.1 |
| 20260506201754 | 23 | 185 | 6.4 | 9.7 | 0.00 | 0.00 | 0.00 | 45 | 1016.1 |
| 20260506201718 | 23 | 124 | 12.9 | 0.0 | 0.00 | 0.00 | 0.00 | 46 | 1016.2 |
| 20260506201647 | 23 | 124 | 12.9 | 0.0 | 0.00 | 0.00 | 0.00 | 45 | 1016.2 |
| 20260506201611 | 23 | 124 | 12.9 | 0.0 | 0.00 | 0.00 | 0.00 | 45 | 1016.2 |
| 20260506201549 | 23 | 203 | 3.2 | 8.0 | 0.00 | 0.00 | 0.00 | 46 | 1017.1 |
| 20260506201534 | 23 | 124 | 12.9 | 0.0 | 0.00 | 0.00 | 0.00 | 45 | 1016.2 |
| 20260506201444 | 23 | 124 | 12.9 | 0.0 | 0.00 | 0.00 | 0.00 | 45 | 1016.2 |
| 20260506201354 | 23 | 124 | 12.9 | 0.0 | 0.00 | 0.00 | 0.00 | 45 | 1016.2 |
| 20260506201200 | 23 | 124 | 12.9 | 0.0 | 0.00 | 0.00 | 0.00 | 45 | 1016.2 |
| 20260506201130 | 23 | 124 | 12.9 | 0.0 | 0.00 | 0.00 | 0.00 | 44 | 1016.2 |
| 20260506201100 | 23 | 124 | 12.9 | 0.0 | 0.00 | 0.00 | 0.00 | 46 | 1016.2 |
| 20260506201045 | 22 | 160 | 3.2 | 12.9 | 0.00 | 0.00 | 0.00 | 46 | 1017.1 |
| 20260506201011 | 23 | 124 | 12.9 | 0.0 | 0.00 | 0.00 | 0.00 | 45 | 1016.2 |
| 20260506200639 | 22 | 124 | 12.9 | 0.0 | 0.00 | 0.00 | 0.00 | 46 | 1016.2 |
| 20260506200609 | 23 | 124 | 12.9 | 0.0 | 0.00 | 0.00 | 0.00 | 45 | 1016.2 |
| 20260506200542 | 23 | 212 | 6.4 | 9.7 | 0.00 | 0.00 | 0.00 | 45 | 1017.2 |
| 20260506200539 | 23 | 124 | 12.9 | 14.5 | 0.00 | 0.00 | 0.00 | 45 | 1016.2 |
| 20260506200436 | 23 | 164 | 6.4 | 0.0 | 0.00 | 0.00 | 0.00 | 45 | 1016.2 |
| 20260506200406 | 23 | 164 | 6.4 | 0.0 | 0.00 | 0.00 | 0.00 | 46 | 1016.2 |
| 20260506200038 | 22 | 216 | 1.6 | 14.5 | 0.00 | 0.00 | 0.00 | 46 | 1017.2 |
| 20260506200032 | 22 | 164 | 6.4 | 0.0 | 0.00 | 0.00 | 0.00 | 46 | 1016.2 |
| 20260506195943 | 22 | 164 | 6.4 | 0.0 | 0.00 | 0.00 | 0.00 | 46 | 1016.2 |
| 20260506195742 | 22 | 164 | 6.4 | 0.0 | 0.00 | 0.00 | 0.00 | 47 | 1016.2 |
| 20260506195653 | 22 | 164 | 6.4 | 0.0 | 0.00 | 0.00 | 0.00 | 46 | 1016.2 |
| 20260506195610 | 22 | 164 | 6.4 | 0.0 | 0.00 | 0.00 | 0.00 | 46 | 1016.2 |
| 20260506195535 | 22 | 114 | 4.8 | 9.7 | 0.00 | 0.00 | 0.00 | 46 | 1017.2 |
| 20260506195335 | 23 | 164 | 6.4 | 0.0 | 0.00 | 0.00 | 0.00 | 45 | 1016.2 |
| 20260506195306 | 23 | 164 | 6.4 | 0.0 | 0.00 | 0.00 | 0.00 | 46 | 1016.2 |
| 20260506195234 | 23 | 164 | 6.4 | 8.0 | 0.00 | 0.00 | 0.00 | 46 | 1016.2 |
| 20260506195032 | 23 | 177 | 9.7 | 9.7 | 0.00 | 0.00 | 0.00 | 45 | 1017.2 |
| 20260506195014 | 22 | 137 | 0.0 | 0.0 | 0.00 | 0.00 | 0.00 | 46 | 1016.4 |
| 20260506194938 | 22 | 137 | 0.0 | 0.0 | 0.00 | 0.00 | 0.00 | 46 | 1016.4 |
| 20260506194907 | 23 | 137 | 0.0 | 0.0 | 0.00 | 0.00 | 0.00 | 46 | 1016.4 |
| 20260506194837 | 23 | 137 | 0.0 | 0.0 | 0.00 | 0.00 | 0.00 | 45 | 1016.4 |
| 20260506194745 | 23 | 137 | 0.0 | 0.0 | 0.00 | 0.00 | 0.00 | 45 | 1016.4 |
| 20260506194715 | 23 | 137 | 0.0 | 0.0 | 0.00 | 0.00 | 0.00 | 44 | 1016.4 |
| 20260506194645 | 23 | 137 | 0.0 | 0.0 | 0.00 | 0.00 | 0.00 | 45 | 1016.4 |
| 20260506194549 | 23 | 137 | 0.0 | 0.0 | 0.00 | 0.00 | 0.00 | 45 | 1016.4 |
| 20260506194529 | 23 | 41 | 6.4 | 8.0 | 0.00 | 0.00 | 0.00 | 45 | 1017.3 |
| 20260506194454 | 23 | 137 | 0.0 | 0.0 | 0.00 | 0.00 | 0.00 | 45 | 1016.4 |
| 20260506194253 | 23 | 137 | 0.0 | 0.0 | 0.00 | 0.00 | 0.00 | 47 | 1016.4 |
| 20260506194033 | 23 | 137 | 0.0 | 0.0 | 0.00 | 0.00 | 0.00 | 47 | 1016.4 |
| 20260506194026 | 23 | 230 | 1.6 | 4.8 | 0.00 | 0.00 | 0.00 | 47 | 1017.3 |
| 20260506193950 | 23 | 137 | 0.0 | 3.2 | 0.00 | 0.00 | 0.00 | 47 | 1016.4 |
| 20260506193913 | 23 | 0.0 | 0.0 | 0.00 | 0.00 | 0.00 | 46 | ||
| 20260506193523 | 23 | 229 | 3.2 | 6.4 | 0.00 | 0.00 | 0.00 | 47 | 1017.4 |
| 20260506193020 | 22 | 209 | 6.4 | 9.7 | 0.00 | 0.00 | 0.00 | 47 | 1017.3 |
| 20260506192517 | 22 | 156 | 1.6 | 9.7 | 0.00 | 0.00 | 0.00 | 47 | 1017.6 |
| 20260506192013 | 21 | 227 | 3.2 | 12.9 | 0.00 | 0.00 | 0.00 | 48 | 1017.6 |
| 20260506191510 | 21 | 193 | 8.0 | 11.3 | 0.00 | 0.00 | 0.00 | 49 | 1017.8 |
| 20260506191006 | 22 | 149 | 4.8 | 8.0 | 0.00 | 0.00 | 0.00 | 48 | 1017.6 |
| 20260506190503 | 21 | 0 | 0.0 | 6.4 | 0.00 | 0.00 | 0.00 | 48 | 1017.6 |
| 20260506185959 | 21 | 14 | 6.4 | 6.4 | 0.00 | 0.00 | 0.00 | 49 | 1017.6 |
| 20260506185457 | 21 | 184 | 8.0 | 8.0 | 0.00 | 0.00 | 0.00 | 48 | 1017.7 |
| 20260506184954 | 22 | 239 | 4.8 | 8.0 | 0.00 | 0.00 | 0.00 | 46 | 1017.8 |
| 20260506184451 | 22 | 289 | 0.0 | 4.8 | 0.00 | 0.00 | 0.00 | 48 | 1017.9 |
| 20260506183948 | 21 | 203 | 0.0 | 8.0 | 0.00 | 0.00 | 0.00 | 50 | 1017.9 |
| 20260506183443 | 21 | 147 | 3.2 | 12.9 | 0.00 | 0.00 | 0.00 | 51 | 1017.8 |
| 20260506182941 | 20 | 121 | 4.8 | 14.5 | 0.00 | 0.00 | 0.00 | 50 | 1017.9 |
| 20260506182438 | 21 | 111 | 1.6 | 6.4 | 0.00 | 0.00 | 0.00 | 49 | 1017.9 |
| 20260506181935 | 20 | 210 | 6.4 | 9.7 | 0.00 | 0.00 | 0.00 | 51 | 1018.0 |
| 20260506181433 | 20 | 225 | 4.8 | 9.7 | 0.00 | 0.00 | 0.00 | 51 | 1018.0 |
| 20260506180930 | 20 | 173 | 8.0 | 11.3 | 0.00 | 0.00 | 0.00 | 51 | 1018.0 |
| 20260506180426 | 21 | 251 | 3.2 | 6.4 | 0.00 | 0.00 | 0.00 | 49 | 1018.3 |
| 20260506175923 | 20 | 80 | 4.8 | 9.7 | 0.00 | 0.00 | 0.00 | 52 | 1018.2 |
| 20260506175420 | 20 | 160 | 4.8 | 6.4 | 0.00 | 0.00 | 0.00 | 52 | 1018.0 |
| 20260506174916 | 20 | 332 | 3.2 | 4.8 | 0.00 | 0.00 | 0.00 | 52 | 1018.1 |
| 20260506174414 | 19 | 163 | 6.4 | 8.0 | 0.00 | 0.00 | 0.00 | 54 | 1018.4 |
| 20260506173911 | 19 | 117 | 4.8 | 9.7 | 0.00 | 0.00 | 0.00 | 53 | 1018.3 |
| 20260506173408 | 20 | 189 | 6.4 | 6.4 | 0.00 | 0.00 | 0.00 | 52 | 1018.3 |
| 20260506172905 | 20 | 142 | 1.6 | 4.8 | 0.00 | 0.00 | 0.00 | 53 | 1018.3 |
| 20260506172401 | 20 | 191 | 1.6 | 4.8 | 0.00 | 0.00 | 0.00 | 51 | 1018.2 |
| 20260506171859 | 20 | 351 | 0.0 | 4.8 | 0.00 | 0.00 | 0.00 | 52 | 1018.2 |
| 20260506171356 | 18 | 166 | 0.0 | 6.4 | 0.00 | 0.00 | 0.00 | 56 | 1018.5 |
| 20260506170854 | 18 | 156 | 3.2 | 11.3 | 0.00 | 0.00 | 0.00 | 57 | 1018.2 |
| 20260506170350 | 18 | 312 | 1.6 | 3.2 | 0.00 | 0.00 | 0.00 | 56 | 1018.3 |
| 20260506165849 | 18 | 297 | 1.6 | 9.7 | 0.00 | 0.00 | 0.00 | 56 | 1018.4 |
| 20260506165347 | 19 | 112 | 1.6 | 4.8 | 0.00 | 0.00 | 0.00 | 55 | 1018.3 |
| 20260506164843 | 18 | 114 | 0.0 | 3.2 | 0.00 | 0.00 | 0.00 | 57 | 1018.2 |
| 20260506164339 | 18 | 139 | 3.2 | 9.7 | 0.00 | 0.00 | 0.00 | 58 | 1018.2 |
| 20260506163837 | 18 | 28 | 3.2 | 4.8 | 0.00 | 0.00 | 0.00 | 57 | 1018.2 |
| 20260506163331 | 18 | 332 | 0.0 | 4.8 | 0.00 | 0.00 | 0.00 | 58 | 1018.3 |
| 20260506162827 | 18 | 36 | 4.8 | 4.8 | 0.00 | 0.00 | 0.00 | 57 | 1018.4 |
| 20260506162325 | 18 | 205 | 4.8 | 6.4 | 0.00 | 0.00 | 0.00 | 58 | 1018.3 |
| 20260506161823 | 17 | 173 | 6.4 | 6.4 | 0.00 | 0.00 | 0.00 | 61 | 1018.2 |
| 20260506161320 | 17 | 128 | 1.6 | 4.8 | 0.00 | 0.00 | 0.00 | 60 | 1018.2 |
| 20260506160817 | 17 | 54 | 0.0 | 4.8 | 0.00 | 0.00 | 0.00 | 62 | 1018.2 |
| 20260506160314 | 16 | 184 | 3.2 | 6.4 | 0.00 | 0.00 | 0.00 | 62 | 1018.3 |
| 20260506155813 | 16 | 185 | 1.6 | 6.4 | 0.00 | 0.00 | 0.00 | 63 | 1018.3 |
| 20260506155309 | 17 | 72 | 0.0 | 9.7 | 0.00 | 0.00 | 0.00 | 63 | 1018.2 |
| 20260506153421 | 17 | 115 | 0.0 | 3.2 | 0.00 | 0.00 | 0.00 | 64 | 1018.5 |
| 20260506152919 | 16 | 136 | 1.6 | 6.4 | 0.00 | 0.00 | 0.00 | 65 | 1018.5 |
| 20260506152415 | 16 | 125 | 3.2 | 6.4 | 0.00 | 0.00 | 0.00 | 66 | 1018.4 |
| 20260506151914 | 16 | 78 | 4.8 | 6.4 | 0.00 | 0.00 | 0.00 | 65 | 1018.4 |
| 20260506151410 | 16 | 113 | 0.0 | 3.2 | 0.00 | 0.00 | 0.00 | 64 | 1018.5 |
| 20260506150908 | 15 | 120 | 6.4 | 6.4 | 0.00 | 0.00 | 0.00 | 66 | 1018.5 |
| 20260506150404 | 15 | 131 | 1.6 | 4.8 | 0.00 | 0.00 | 0.00 | 68 | 1018.3 |
| 20260506145901 | 15 | 155 | 3.2 | 4.8 | 0.00 | 0.00 | 0.00 | 67 | 1018.4 |
| 20260506145357 | 16 | 121 | 1.6 | 4.8 | 0.00 | 0.00 | 0.00 | 66 | 1018.5 |
| 20260506144855 | 15 | 129 | 3.2 | 4.8 | 0.00 | 0.00 | 0.00 | 68 | 1018.4 |
| 20260506144351 | 15 | 93 | 0.0 | 4.8 | 0.00 | 0.00 | 0.00 | 70 | 1018.4 |
| 20260506143850 | 15 | 151 | 3.2 | 3.2 | 0.00 | 0.00 | 0.00 | 69 | 1018.5 |
| 20260506143346 | 16 | 181 | 3.2 | 3.2 | 0.00 | 0.00 | 0.00 | 63 | 1018.5 |
| 20260506142845 | 16 | 132 | 0.0 | 1.6 | 0.00 | 0.00 | 0.00 | 63 | 1018.1 |
| 20260506142342 | 16 | 72 | 0.0 | 3.2 | 0.00 | 0.00 | 0.00 | 64 | 1018.5 |
| 20260506141840 | 15 | 84 | 1.6 | 3.2 | 0.00 | 0.00 | 0.00 | 68 | 1018.3 |
| 20260506141338 | 13 | 77 | 0.0 | 3.2 | 0.00 | 0.00 | 0.00 | 72 | 1018.3 |
| 20260506140836 | 12 | 89 | 3.2 | 3.2 | 0.00 | 0.00 | 0.00 | 74 | 1018.3 |
| 20260506140333 | 11 | 79 | 3.2 | 3.2 | 0.00 | 0.00 | 0.00 | 78 | 1018.3 |
| 20260506135829 | 11 | 18 | 1.6 | 3.2 | 0.00 | 0.00 | 0.00 | 78 | 1018.1 |
| 20260506135326 | 10 | 304 | 0.0 | 4.8 | 0.00 | 0.00 | 0.00 | 81 | 1018.2 |
| 20260506134823 | 10 | 28 | 8.0 | 9.7 | 0.00 | 0.00 | 0.00 | 82 | 1018.0 |
| 20260506134319 | 10 | 48 | 0.0 | 4.8 | 0.00 | 0.00 | 0.00 | 83 | 1018.0 |
| 20260506133816 | 10 | 89 | 1.6 | 4.8 | 0.00 | 0.00 | 0.00 | 83 | 1018.1 |
| 20260506133313 | 10 | 53 | 1.6 | 4.8 | 0.00 | 0.00 | 0.00 | 84 | 1017.9 |
| 20260506132810 | 9 | 16 | 3.2 | 4.8 | 0.00 | 0.00 | 0.00 | 84 | 1018.0 |
| 20260506132307 | 9 | 0 | 3.2 | 4.8 | 0.00 | 0.00 | 0.00 | 85 | 1018.0 |
| 20260506131805 | 9 | 1 | 4.8 | 6.4 | 0.00 | 0.00 | 0.00 | 86 | 1017.8 |
| 20260506131301 | 8 | 6 | 0.0 | 3.2 | 0.00 | 0.00 | 0.00 | 86 | 1017.9 |
| 20260506130758 | 9 | 92 | 1.6 | 6.4 | 0.00 | 0.00 | 0.00 | 86 | 1017.8 |
| 20260506130254 | 9 | 89 | 0.0 | 4.8 | 0.00 | 0.00 | 0.00 | 86 | 1017.9 |
| 20260506125753 | 9 | 45 | 4.8 | 6.4 | 0.00 | 0.00 | 0.00 | 86 | 1017.7 |
| 20260506125250 | 9 | 62 | 1.6 | 3.2 | 0.00 | 0.00 | 0.00 | 86 | 1017.5 |
| 20260506124748 | 9 | 19 | 3.2 | 3.2 | 0.00 | 0.00 | 0.00 | 85 | 1017.7 |
| 20260506124245 | 9 | 27 | 1.6 | 4.8 | 0.00 | 0.00 | 0.00 | 85 | 1017.6 |
| 20260506123743 | 9 | 26 | 3.2 | 6.4 | 0.00 | 0.00 | 0.00 | 85 | 1017.6 |
| 20260506123242 | 9 | 78 | 0.0 | 3.2 | 0.00 | 0.00 | 0.00 | 84 | 1017.5 |
| 20260506122738 | 10 | 55 | 0.0 | 4.8 | 0.00 | 0.00 | 0.00 | 84 | 1017.5 |
| 20260506122235 | 10 | 57 | 0.0 | 8.0 | 0.00 | 0.00 | 0.00 | 84 | 1017.5 |
| 20260506121733 | 9 | 0 | 8.0 | 9.7 | 0.00 | 0.00 | 0.00 | 84 | 1017.6 |
| 20260506121230 | 9 | 18 | 6.4 | 9.7 | 0.00 | 0.00 | 0.00 | 84 | 1017.3 |
| 20260506120727 | 10 | 23 | 4.8 | 4.8 | 0.00 | 0.00 | 0.00 | 84 | 1017.5 |
| 20260506120225 | 10 | 15 | 4.8 | 8.0 | 0.00 | 0.00 | 0.00 | 84 | 1017.2 |
| 20260506115723 | 10 | 357 | 1.6 | 3.2 | 0.00 | 0.00 | 0.00 | 84 | 1017.4 |
| 20260506115221 | 10 | 26 | 3.2 | 4.8 | 0.00 | 0.00 | 0.00 | 84 | 1017.5 |
| 20260506114718 | 10 | 50 | 3.2 | 6.4 | 0.00 | 0.00 | 0.00 | 84 | 1017.4 |
| 20260506114215 | 10 | 334 | 3.2 | 8.0 | 0.00 | 0.00 | 0.00 | 83 | 1017.4 |
| 20260506113714 | 10 | 8 | 4.8 | 8.0 | 0.00 | 0.00 | 0.00 | 83 | 1017.4 |
| 20260506113211 | 10 | 357 | 4.8 | 9.7 | 0.00 | 0.00 | 0.00 | 83 | 1017.4 |
| 20260506112707 | 10 | 22 | 4.8 | 6.4 | 0.00 | 0.00 | 0.00 | 83 | 1017.5 |
| 20260506112205 | 10 | 11 | 6.4 | 6.4 | 0.00 | 0.00 | 0.00 | 84 | 1017.4 |
| 20260506111702 | 10 | 20 | 8.0 | 8.0 | 0.00 | 0.00 | 0.00 | 83 | 1017.3 |
| 20260506111200 | 10 | 28 | 0.0 | 6.4 | 0.00 | 0.00 | 0.00 | 83 | 1017.2 |
| 20260506110657 | 10 | 27 | 6.4 | 8.0 | 0.00 | 0.00 | 0.00 | 83 | 1017.2 |
| 20260506110154 | 10 | 343 | 1.6 | 6.4 | 0.00 | 0.00 | 0.00 | 84 | 1017.4 |
| 20260506105651 | 10 | 27 | 4.8 | 8.0 | 0.00 | 0.00 | 0.00 | 84 | 1017.1 |
| 20260506105148 | 10 | 35 | 0.0 | 6.4 | 0.00 | 0.00 | 0.00 | 84 | 1017.4 |
| 20260506104646 | 10 | 22 | 1.6 | 4.8 | 0.00 | 0.00 | 0.00 | 84 | 1017.0 |
| 20260506104143 | 10 | 16 | 6.4 | 8.0 | 0.00 | 0.00 | 0.00 | 84 | 1017.3 |
| 20260506103640 | 10 | 340 | 1.6 | 6.4 | 0.00 | 0.00 | 0.00 | 84 | 1017.4 |
| 20260506103137 | 10 | 30 | 4.8 | 9.7 | 0.00 | 0.00 | 0.00 | 84 | 1017.4 |
| 20260506102635 | 10 | 33 | 6.4 | 8.0 | 0.00 | 0.00 | 0.00 | 84 | 1017.2 |
| 20260506102132 | 10 | 24 | 6.4 | 6.4 | 0.00 | 0.00 | 0.00 | 85 | 1017.3 |
| 20260506101629 | 10 | 33 | 0.0 | 4.8 | 0.00 | 0.00 | 0.00 | 84 | 1017.3 |
| 20260506101126 | 10 | 17 | 0.0 | 6.4 | 0.00 | 0.00 | 0.00 | 84 | 1017.3 |
| 20260506100624 | 10 | 32 | 0.0 | 4.8 | 0.00 | 0.00 | 0.00 | 84 | 1017.3 |
| 20260506100122 | 10 | 33 | 6.4 | 6.4 | 0.00 | 0.00 | 0.00 | 84 | 1017.4 |
| 20260506095621 | 10 | 48 | 0.0 | 6.4 | 0.00 | 0.00 | 0.00 | 84 | 1017.4 |
| 20260506095117 | 10 | 76 | 0.0 | 6.4 | 0.00 | 0.00 | 0.00 | 84 | 1017.5 |
| 20260506094614 | 10 | 4 | 6.4 | 6.4 | 0.00 | 0.00 | 0.00 | 84 | 1017.4 |
| 20260506094112 | 10 | 3 | 6.4 | 6.4 | 0.00 | 0.00 | 0.00 | 84 | 1017.5 |
| 20260506093610 | 10 | 43 | 3.2 | 8.0 | 0.00 | 0.00 | 0.00 | 84 | 1017.6 |
| 20260506093107 | 10 | 33 | 3.2 | 6.4 | 0.00 | 0.00 | 0.00 | 84 | 1017.6 |
| 20260506092605 | 10 | 42 | 0.0 | 3.2 | 0.00 | 0.00 | 0.00 | 84 | 1017.5 |
| 20260506092101 | 10 | 113 | 0.0 | 1.6 | 0.00 | 0.00 | 0.00 | 84 | 1017.6 |
| 20260506091600 | 10 | 17 | 1.6 | 8.0 | 0.00 | 0.00 | 0.00 | 83 | 1017.7 |
| 20260506091057 | 10 | 347 | 1.6 | 4.8 | 0.00 | 0.00 | 0.00 | 84 | 1017.7 |
| 20260506090555 | 10 | 19 | 3.2 | 3.2 | 0.00 | 0.00 | 0.00 | 85 | 1017.5 |
| 20260506090050 | 10 | 38 | 3.2 | 4.8 | 0.00 | 0.00 | 0.00 | 85 | 1017.6 |
| 20260506085548 | 10 | 49 | 1.6 | 3.2 | 0.00 | 0.00 | 0.00 | 85 | 1017.5 |
| 20260506085044 | 10 | 56 | 1.6 | 3.2 | 0.00 | 0.00 | 0.00 | 85 | 1017.6 |
| 20260506084541 | 10 | 39 | 3.2 | 3.2 | 0.00 | 0.00 | 0.00 | 85 | 1017.7 |
| 20260506084037 | 10 | 48 | 1.6 | 3.2 | 0.00 | 0.00 | 0.00 | 84 | 1017.8 |
| 20260506083535 | 10 | 77 | 0.0 | 1.6 | 0.00 | 0.00 | 0.00 | 84 | 1017.7 |
| 20260506083032 | 10 | 52 | 3.2 | 3.2 | 0.00 | 0.00 | 0.00 | 84 | 1017.9 |
| 20260506082528 | 10 | 63 | 0.0 | 3.2 | 0.00 | 0.00 | 0.00 | 84 | 1017.8 |
| 20260506082024 | 10 | 11 | 1.6 | 4.8 | 0.00 | 0.00 | 0.00 | 84 | 1018.0 |
| 20260506081523 | 10 | 48 | 0.0 | 3.2 | 0.00 | 0.00 | 0.00 | 84 | 1017.8 |
| 20260506081020 | 10 | 75 | 0.0 | 0.0 | 0.00 | 0.00 | 0.00 | 83 | 1017.9 |
| 20260506080517 | 10 | 56 | 0.0 | 3.2 | 0.00 | 0.00 | 0.00 | 83 | 1017.8 |
| 20260506073500 | 10 | 317 | 3.2 | 6.4 | 0.00 | 0.00 | 0.00 | 81 | 1018.0 |
| 20260506072958 | 10 | 23 | 3.2 | 4.8 | 0.00 | 0.00 | 0.00 | 81 | 1017.9 |
| 20260506072455 | 10 | 38 | 3.2 | 6.4 | 0.00 | 0.00 | 0.00 | 81 | 1017.8 |
| 20260506071953 | 10 | 43 | 3.2 | 6.4 | 0.00 | 0.00 | 0.00 | 81 | 1017.9 |
| 20260506071450 | 10 | 25 | 6.4 | 6.4 | 0.00 | 0.00 | 0.00 | 81 | 1017.7 |
| 20260506070947 | 10 | 20 | 3.2 | 6.4 | 0.00 | 0.00 | 0.00 | 81 | 1017.7 |
| 20260506070444 | 10 | 19 | 3.2 | 9.7 | 0.00 | 0.00 | 0.00 | 80 | 1017.7 |
| 20260506062422 | 10 | 53 | 1.6 | 3.2 | 0.00 | 0.00 | 0.00 | 79 | 1017.1 |
| 20260506061917 | 11 | 47 | 0.0 | 3.2 | 0.00 | 0.00 | 0.00 | 79 | 1017.1 |
| 20260506061414 | 11 | 44 | 1.6 | 3.2 | 0.00 | 0.00 | 0.00 | 78 | 1017.2 |
| 20260506060912 | 11 | 16 | 3.2 | 4.8 | 0.00 | 0.00 | 0.00 | 78 | 1017.0 |
| 20260506060410 | 11 | 21 | 3.2 | 4.8 | 0.00 | 0.00 | 0.00 | 77 | 1017.1 |
| 20260506051342 | 11 | 23 | 3.2 | 6.4 | 0.00 | 0.00 | 0.00 | 75 | 1016.8 |
| 20260506050839 | 11 | 52 | 0.0 | 6.4 | 0.00 | 0.00 | 0.00 | 74 | 1016.6 |
| 20260506050337 | 12 | 24 | 6.4 | 6.4 | 0.00 | 0.00 | 0.00 | 73 | 1016.5 |
| 20260506044827 | 12 | 75 | 0.0 | 6.4 | 0.00 | 0.00 | 0.00 | 74 | 1016.3 |
| 20260506044325 | 12 | 40 | 3.2 | 8.0 | 0.00 | 0.00 | 0.00 | 74 | 1016.2 |
| 20260506043822 | 12 | 54 | 3.2 | 6.4 | 0.00 | 0.00 | 0.00 | 74 | 1016.4 |
| 20260506043319 | 12 | 8 | 3.2 | 8.0 | 0.00 | 0.00 | 0.00 | 74 | 1016.3 |
| 20260506042817 | 12 | 74 | 0.0 | 8.0 | 0.00 | 0.00 | 0.00 | 74 | 1016.0 |
| 20260506042316 | 12 | 20 | 4.8 | 4.8 | 0.00 | 0.00 | 0.00 | 74 | 1016.0 |
| 20260506041815 | 12 | 33 | 3.2 | 3.2 | 0.00 | 0.00 | 0.00 | 74 | 1016.0 |
| 20260506041311 | 12 | 33 | 8.0 | 8.0 | 0.00 | 0.00 | 0.00 | 73 | 1015.9 |
| 20260506040808 | 12 | 23 | 3.2 | 3.2 | 0.00 | 0.00 | 0.00 | 75 | 1015.9 |
| 20260506040305 | 13 | 60 | 0.0 | 3.2 | 0.00 | 0.00 | 0.00 | 74 | 1015.9 |
| 20260506035802 | 13 | 46 | 3.2 | 3.2 | 0.00 | 0.00 | 0.00 | 76 | 1015.7 |
| 20260506035259 | 13 | 67 | 1.6 | 3.2 | 0.00 | 0.00 | 0.00 | 75 | 1015.6 |
| 20260506034756 | 13 | 70 | 1.6 | 3.2 | 0.00 | 0.00 | 0.00 | 74 | 1015.6 |
| 20260506034253 | 13 | 66 | 0.0 | 1.6 | 0.00 | 0.00 | 0.00 | 73 | 1015.5 |
| 20260506033750 | 14 | 32 | 0.0 | 3.2 | 0.00 | 0.00 | 0.00 | 72 | 1015.4 |
| 20260506033247 | 14 | 57 | 3.2 | 3.2 | 0.00 | 0.00 | 0.00 | 71 | 1015.5 |
| 20260506032744 | 15 | 126 | 0.0 | 1.6 | 0.00 | 0.00 | 0.00 | 70 | 1015.4 |
| 20260506032241 | 15 | 52 | 0.0 | 4.8 | 0.00 | 0.00 | 0.00 | 69 | 1015.2 |
| 20260506031737 | 15 | 29 | 0.0 | 3.2 | 0.00 | 0.00 | 0.00 | 68 | 1015.1 |
| 20260506031235 | 15 | 52 | 0.0 | 3.2 | 0.00 | 0.00 | 0.00 | 68 | 1015.0 |
| 20260506030733 | 15 | 69 | 0.0 | 3.2 | 0.00 | 0.00 | 0.00 | 67 | 1015.0 |
| 20260506030230 | 15 | 4 | 3.2 | 4.8 | 0.00 | 0.00 | 0.00 | 66 | 1014.9 |
| 20260506025727 | 15 | 29 | 1.6 | 1.6 | 0.00 | 0.00 | 0.00 | 66 | 1014.8 |
| 20260506025224 | 15 | 50 | 3.2 | 4.8 | 0.00 | 0.00 | 0.00 | 66 | 1014.8 |
| 20260506024720 | 15 | 96 | 1.6 | 3.2 | 0.00 | 0.00 | 0.00 | 66 | 1014.7 |
| 20260506024217 | 15 | 42 | 3.2 | 4.8 | 0.00 | 0.00 | 0.00 | 66 | 1014.4 |
| 20260506023713 | 16 | 31 | 0.0 | 3.2 | 0.00 | 0.00 | 0.00 | 66 | 1014.6 |
| 20260506023211 | 16 | 24 | 1.6 | 6.4 | 0.00 | 0.00 | 0.00 | 65 | 1014.5 |
| 20260506022707 | 16 | 180 | 0.0 | 1.6 | 0.00 | 0.00 | 0.00 | 67 | 1014.4 |
| 20260506022205 | 16 | 12 | 1.6 | 3.2 | 0.00 | 0.00 | 0.00 | 66 | 1014.4 |
| 20260506021703 | 16 | 57 | 3.2 | 3.2 | 0.00 | 0.00 | 0.00 | 66 | 1014.2 |
| 20260506021200 | 16 | 147 | 0.0 | 3.2 | 0.00 | 0.00 | 0.00 | 65 | 1014.4 |
| 20260506020656 | 16 | 326 | 0.0 | 4.8 | 0.00 | 0.00 | 0.00 | 63 | 1014.4 |
| 20260506020154 | 16 | 34 | 3.2 | 4.8 | 0.00 | 0.00 | 0.00 | 62 | 1014.3 |
| 20260506015652 | 16 | 358 | 3.2 | 6.4 | 0.00 | 0.00 | 0.00 | 62 | 1014.3 |
| 20260506015149 | 16 | 229 | 1.6 | 6.4 | 0.00 | 0.00 | 0.00 | 61 | 1014.2 |
| 20260506014646 | 16 | 58 | 1.6 | 4.8 | 0.00 | 0.00 | 0.00 | 62 | 1014.1 |
| 20260506014142 | 17 | 357 | 3.2 | 3.2 | 0.00 | 0.00 | 0.00 | 61 | 1014.2 |
| 20260506013640 | 17 | 225 | 1.6 | 4.8 | 0.00 | 0.00 | 0.00 | 61 | 1014.2 |
| 20260506013137 | 17 | 332 | 1.6 | 6.4 | 0.00 | 0.00 | 0.00 | 60 | 1014.2 |
| 20260506012633 | 17 | 7 | 3.2 | 4.8 | 0.00 | 0.00 | 0.00 | 59 | 1014.1 |
| 20260506012130 | 18 | 39 | 0.0 | 6.4 | 0.00 | 0.00 | 0.00 | 57 | 1014.1 |
| 20260506011627 | 18 | 31 | 0.0 | 6.4 | 0.00 | 0.00 | 0.00 | 57 | 1013.9 |
| 20260506011123 | 18 | 253 | 3.2 | 8.0 | 0.00 | 0.00 | 0.00 | 56 | 1013.9 |
| 20260506010622 | 18 | 302 | 1.6 | 4.8 | 0.00 | 0.00 | 0.00 | 54 | 1014.1 |
| 20260506010119 | 19 | 299 | 1.6 | 3.2 | 0.00 | 0.00 | 0.00 | 54 | 1013.9 |
| 20260506005616 | 19 | 27 | 1.6 | 4.8 | 0.00 | 0.00 | 0.00 | 53 | 1014.0 |
| 20260506005112 | 19 | 36 | 3.2 | 3.2 | 0.00 | 0.00 | 0.00 | 54 | 1013.9 |
| 20260506004609 | 19 | 8 | 3.2 | 6.4 | 0.00 | 0.00 | 0.00 | 54 | 1013.9 |
| 20260506004106 | 18 | 180 | 1.6 | 6.4 | 0.00 | 0.00 | 0.00 | 53 | 1014.0 |
| 20260506003602 | 18 | 198 | 1.6 | 8.0 | 0.00 | 0.00 | 0.00 | 52 | 1013.8 |
| 20260506003058 | 19 | 65 | 0.0 | 3.2 | 0.00 | 0.00 | 0.00 | 52 | 1013.8 |
| 20260506002554 | 18 | 129 | 0.0 | 4.8 | 0.00 | 0.00 | 0.00 | 52 | 1013.8 |
| 20260506002050 | 17 | 142 | 3.2 | 8.0 | 0.00 | 0.00 | 0.00 | 55 | 1013.8 |